Regional Weather Roundup
Issued by NWS Newport/Morehead, NC

Current Version | Previous Version | Graphics & Text | Print | Product List | Glossary Off
Versions: 1 2 3 4 5 6 7 8 9 10 11 12 13 14 15 16 17 18 19 20 21 22 23 24 25 26 27 28 29 30 31 32 33 34 35 36 37 38 39 40 41 42 43 44 45 46 47 48 49 50

000
ASUS42 KMHX 070324
RWRMHX
WEATHER ROUNDUP FOR EASTERN NORTH CAROLINA
NATIONAL WEATHER SERVICE NEWPORT/MOREHEAD CITY NC
1000 PM EST TUE DEC 06 2016

NOTE: "FAIR" INDICATES FEW OR NO CLOUDS BELOW 12,000 FEET
WITH NO SIGNIFICANT WEATHER AND/OR OBSTRUCTIONS TO VISIBILITY

NCZ015>017-031-032-045>047-102-103-070400-
NORTH COAST

CITY           SKY/WX    TMP DP  RH WIND       PRES   REMARKS
EDENTON        CLOUDY    49  46  90 W15G21    29.74R
ELIZABETH CITY CLOUDY    49  48  97 W17G25    29.69R
KITTY HAWK     CLOUDY    51  51 100 W16G29    29.66R
MANTEO         CLOUDY    51  50  99 W16G22    29.69R

$$

NCZ045>047-081-094-103-104-070400-
CENTRAL COAST

CITY           SKY/WX    TMP DP  RH WIND       PRES   REMARKS
FRISCO         MOCLDY    56  53  90 W21G31    29.70R

$$

NCZ095-097-098-100-101-070400-
SOUTHERN COAST

CITY           SKY/WX    TMP DP  RH WIND       PRES   REMARKS
BEAUFORT       CLOUDY    56  52  86 W13       29.76R
CEDAR ISLAND   NOT AVBL
JACKSONVILLE   NOT AVBL
PINEY ISLAND   PTCLDY   N/A N/A N/A W22G28    29.73R
WILMINGTON     CLOUDY    52  50  93 NW15      29.83R


$$

NCZ011>013-027>030-043-044-078>080-089-090>093-098-070400-
COASTAL PLAIN

CITY           SKY/WX    TMP DP  RH WIND       PRES   REMARKS
AHOSKIE        CLOUDY    44  43  95 CALM      29.77R
CLINTON        CLOUDY    46  45  95 W7        29.85R
ELIZABETHTOWN  CLOUDY    49  49  99 CALM      29.85R
GOLDSBORO      CLOUDY    46  46 100 W15       29.81R
GREENVILLE     CLOUDY    45  45 100 NW9       29.82S
HAVELOCK       MOCLDY    53  49  86 W15       29.78R
KENANSVILLE    CLOUDY    46  45  93 W9G16     29.83R
KINSTON        CLOUDY    46  45  93 W5        29.82R
NEW BERN       MOCLDY    50  47  89 W10       29.79R
RICHLANDS      CLOUDY    49  47  93 W7        29.82R
ROCKY MOUNT    CLOUDY    44  43  96 W13       29.81R
WASHINGTON     CLOUDY    46  44  93 NW10G16   29.77R
WHITEVILLE     CLOUDY    51  49  92 W5        29.86R

$$

AMZ130-135-150-152-154-156-158-170-250-252-270-ANZ085-086-088-633-658-670-070400-
MARINE OBSERVATIONS

STATION/POSITION TIME  TEMP    WIND        PRES    WAVE   SWELL
                       AIR SEA DIR/SP/G            HT/PER HT/PER
                 (UTC) (F)     (DEG/KT/KT) (MB)    (FT/S) (FT/S)
CHESAPEAKE LIGHT NOT AVBL
64 E VA BEACH    NOT AVBL
DUCK             0142   56 54  270/ 13/ 18 1001.5
2 E DUCK         NOT AVBL
OREGON INLET     0142   60 57  260/ 18/ 25 1002.2
13E OREGON INLT  NOT AVBL
HATTERAS CG      0142   62 61  260/ 26/ 34 1003.6
DIAMOND BUOY     NOT AVBL
CAPE LOOKOUT     0200   59     280/ 26/ 32 1006.4
BEAUFORT LAB     0142   58 56  290/ 13/ 17 1005.7
30 SE NEW RVR IN NOT AVBL
30 SE NEW RVR IN NOT AVBL
27 SE WRIGHTSVLE NOT AVBL
5 SE WRIGHTSVLE  NOT AVBL
225 S CAPE HAT   0150   75 74  210/ 23/ 29 1008.6   11/ 8
41 SE CHARLESTON NOT AVBL

$$




USA.gov is the U.S. government's official web portal to all federal, state and local government web resources and services.